| time (UTC) | temp F | wind direction | speed MPH | gust MPH | rain 1hr in | rain 24hr in | rain mn in | humidity % | barometer mb |
| 20260503050008 | 59 | 174 | 11.0 | 18.0 | 0.00 | 0.00 | 0.00 | 41 | 1009.0 |
| 20260503044505 | 58 | 215 | 14.0 | 20.0 | 0.00 | 0.00 | 0.00 | 41 | 1009.5 |
| 20260503043054 | 58 | 203 | 9.0 | 14.0 | 0.00 | 0.00 | 0.00 | 42 | 1009.8 |
| 20260503041544 | 59 | 188 | 10.0 | 15.0 | 0.00 | 0.00 | 0.00 | 41 | 1010.1 |
| 20260503040034 | 59 | 196 | 9.0 | 13.0 | 0.00 | 0.00 | 0.00 | 42 | 1010.2 |
| 20260503034531 | 59 | 203 | 9.0 | 14.0 | 0.00 | 0.00 | 0.00 | 41 | 1010.2 |
| 20260503033050 | 59 | 196 | 10.0 | 14.0 | 0.00 | 0.00 | 0.00 | 42 | 1010.3 |
| 20260503031534 | 59 | 181 | 7.0 | 11.0 | 0.00 | 0.00 | 0.00 | 41 | 1010.5 |
| 20260503030026 | 60 | 207 | 5.0 | 9.0 | 0.00 | 0.00 | 0.00 | 41 | 1010.8 |
| 20260503024523 | 61 | 231 | 10.0 | 15.0 | 0.00 | 0.00 | 0.00 | 38 | 1011.0 |
| 20260503023039 | 61 | 212 | 5.0 | 9.0 | 0.00 | 0.00 | 0.00 | 38 | 1011.2 |
| 20260503021521 | 61 | 246 | 5.0 | 8.0 | 0.00 | 0.00 | 0.00 | 37 | 1011.4 |
| 20260503020001 | 62 | 220 | 5.0 | 8.0 | 0.00 | 0.00 | 0.00 | 36 | 1011.5 |
| 20260503014600 | 62 | 282 | 3.0 | 7.0 | 0.00 | 0.00 | 0.00 | 37 | 1011.9 |
| 20260503013109 | 62 | 213 | 6.0 | 10.0 | 0.00 | 0.00 | 0.00 | 35 | 1011.6 |
| 20260503011554 | 62 | 317 | 5.0 | 9.0 | 0.00 | 0.00 | 0.00 | 36 | 1011.9 |
| 20260503010051 | 63 | 228 | 6.0 | 9.0 | 0.00 | 0.00 | 0.00 | 35 | 1011.7 |
| 20260503004530 | 63 | 224 | 5.0 | 9.0 | 0.00 | 0.00 | 0.00 | 35 | 1011.7 |
| 20260503003029 | 64 | 222 | 4.0 | 11.0 | 0.00 | 0.00 | 0.00 | 33 | 1011.8 |
| 20260503001527 | 64 | 252 | 7.0 | 14.0 | 0.00 | 0.00 | 0.00 | 33 | 1011.9 |
| 20260503000026 | 64 | 235 | 8.0 | 15.0 | 0.00 | 0.00 | 0.00 | 33 | 1012.0 |
| 20260502234523 | 65 | 241 | 10.0 | 16.0 | 0.00 | 0.00 | 0.00 | 32 | 1012.1 |
| 20260502233021 | 65 | 246 | 8.0 | 19.0 | 0.00 | 0.00 | 0.00 | 32 | 1012.3 |
| 20260502231522 | 65 | 266 | 9.0 | 19.0 | 0.00 | 0.00 | 0.00 | 31 | 1012.5 |
| 20260502230020 | 66 | 226 | 7.0 | 22.0 | 0.00 | 0.00 | 0.00 | 31 | 1012.6 |
| 20260502224601 | 66 | 283 | 6.0 | 15.0 | 0.00 | 0.00 | 0.00 | 31 | 1012.8 |
| 20260502223059 | 66 | 268 | 6.0 | 16.0 | 0.00 | 0.00 | 0.00 | 31 | 1012.9 |
| 20260502221541 | 65 | 266 | 8.0 | 16.0 | 0.00 | 0.00 | 0.00 | 31 | 1013.0 |
| 20260502220039 | 66 | 269 | 8.0 | 15.0 | 0.00 | 0.00 | 0.00 | 30 | 1013.2 |
| 20260502214521 | 66 | 281 | 5.0 | 15.0 | 0.00 | 0.00 | 0.00 | 33 | 1013.5 |
| 20260502213020 | 65 | 271 | 8.0 | 22.0 | 0.00 | 0.00 | 0.00 | 31 | 1013.8 |
| 20260502211515 | 65 | 273 | 9.0 | 15.0 | 0.00 | 0.00 | 0.00 | 31 | 1014.0 |
| 20260502210013 | 64 | 255 | 11.0 | 17.0 | 0.00 | 0.00 | 0.00 | 30 | 1014.3 |
| 20260502204520 | 64 | 266 | 4.0 | 20.0 | 0.00 | 0.00 | 0.00 | 32 | 1014.5 |
| 20260502201508 | 63 | 264 | 8.0 | 19.0 | 0.00 | 0.00 | 0.00 | 33 | 1015.0 |
| 20260502200006 | 63 | 262 | 5.0 | 11.0 | 0.00 | 0.00 | 0.00 | 32 | 1015.4 |
| 20260502194504 | 62 | 275 | 8.0 | 16.0 | 0.00 | 0.00 | 0.00 | 33 | 1015.5 |
| 20260502191503 | 61 | 288 | 10.0 | 19.0 | 0.00 | 0.00 | 0.00 | 34 | 1016.1 |
| 20260502190100 | 61 | 262 | 12.0 | 17.0 | 0.00 | 0.00 | 0.00 | 32 | 1016.2 |
| 20260502184556 | 61 | 265 | 12.0 | 17.0 | 0.00 | 0.00 | 0.00 | 34 | 1016.6 |
| 20260502183154 | 60 | 271 | 6.0 | 13.0 | 0.00 | 0.00 | 0.00 | 34 | 1016.8 |
| 20260502181530 | 59 | 246 | 5.0 | 20.0 | 0.00 | 0.00 | 0.00 | 34 | 1017.1 |
| 20260502163023 | 55 | 269 | 10.0 | 22.0 | 0.00 | 0.00 | 0.00 | 38 | 1018.6 |
| 20260502161600 | 55 | 269 | 8.0 | 14.0 | 0.00 | 0.00 | 0.00 | 39 | 1018.8 |
| 20260502151523 | 53 | 268 | 7.0 | 14.0 | 0.00 | 0.00 | 0.00 | 40 | 1019.4 |
| 20260502123007 | 0 | 0.0 | 0.0 | 0.00 | 0.00 | 0.00 | 1019.8 | ||
| 20260502121503 | 0 | 0.0 | 0.0 | 0.00 | 0.00 | 0.00 | 1019.8 | ||
| 20260502114554 | 0 | 0.0 | 0.0 | 0.00 | 0.00 | 0.00 | 1019.8 | ||
| 20260502113050 | 0 | 0.0 | 0.0 | 0.00 | 0.00 | 0.00 | 1019.7 | ||
| 20260502111539 | 0 | 0.0 | 0.0 | 0.00 | 0.00 | 0.00 | 1019.8 | ||
| 20260502110027 | 0 | 0.0 | 0.0 | 0.00 | 0.00 | 0.00 | 1019.8 | ||
| 20260502104513 | 33 | 232 | 1.0 | 3.0 | 0.00 | 0.00 | 0.00 | 77 | 1019.9 |
| 20260502103007 | 33 | 239 | 2.0 | 3.0 | 0.00 | 0.00 | 0.00 | 77 | 1019.9 |
| 20260502101505 | 33 | 245 | 2.0 | 3.0 | 0.00 | 0.00 | 0.00 | 76 | 1019.8 |
| 20260502091502 | 33 | 240 | 1.0 | 2.0 | 0.00 | 0.00 | 0.00 | 77 | 1019.8 |
| 20260502070051 | 37 | 222 | 1.0 | 3.0 | 0.00 | 0.00 | 0.00 | 65 | 1019.8 |
| 20260502064536 | 37 | 209 | 2.0 | 3.0 | 0.00 | 0.00 | 0.00 | 65 | 1019.9 |
| 20260502063037 | 37 | 227 | 1.0 | 1.0 | 0.00 | 0.00 | 0.00 | 63 | 1020.0 |
| 20260502061531 | 38 | 226 | 0.0 | 2.0 | 0.00 | 0.00 | 0.00 | 62 | 1020.0 |
| 20260502060027 | 39 | 252 | 1.0 | 2.0 | 0.00 | 0.00 | 0.00 | 58 | 1020.0 |
| 20260502054526 | 39 | 255 | 1.0 | 3.0 | 0.00 | 0.00 | 0.00 | 58 | 1019.9 |
| 20260502053023 | 39 | 255 | 1.0 | 2.0 | 0.00 | 0.00 | 0.00 | 58 | 1019.9 |
| 20260502051519 | 40 | 265 | 1.0 | 2.0 | 0.00 | 0.00 | 0.00 | 57 | 1019.8 |